KC9Q Weather Reports


time (UTC)temp
F
wind
direction
speed
knots
gust
knots
rain 1hr
in
rain 24hr
in
rain mn
in
humidity
%
barometer
mb
20260906022315 82 338 1.7 1.7 0.00 0.00 0.00 81 1010.6
20260906021810 82 346 1.7 1.7 0.00 0.00 0.00 81 1010.6
20260906021310 82 355 2.6 2.6 0.00 0.00 0.00 82 1010.8
20260906020810 82 1 0.9 1.7 0.00 0.00 0.00 82 1010.7
20260906020310 82 0 0.9 1.7 0.00 0.00 0.00 80 1010.5
20260906015809 83 50 0.0 0.0 0.00 0.00 0.00 80 1010.7
20260906015309 83 202 0.0 0.0 0.00 0.00 0.00 80 1010.5
20260906014809 82 242 0.0 0.0 0.00 0.00 0.00 81 1010.2
20260906014304 82 242 0.0 0.9 0.00 0.00 0.00 81 1010.5
20260906013801 82 322 0.0 0.0 0.00 0.00 0.00 81 1010.2
20260906013300 83 37 0.0 0.0 0.00 0.00 0.00 81 1010.2
20260906012756 83 22 0.0 0.9 0.00 0.00 0.00 79 1010.4
20260906012251 84 349 0.0 0.9 0.00 0.00 0.00 76 1010.2
20260906011746 85 333 0.0 0.0 0.00 0.00 0.00 74 1010.2
20260906011246 85 333 0.0 0.0 0.00 0.00 0.00 73 1010.2
20260906010742 86 333 0.0 0.0 0.00 0.00 0.00 72 1010.2
20260906010238 86 333 0.0 0.9 0.00 0.00 0.00 71 1010.1
20260906005733 87 355 0.9 0.9 0.00 0.00 0.00 70 1010.0
20260906005232 87 340 0.9 1.7 0.00 0.00 0.00 69 1010.0
20260906004731 87 334 0.9 1.7 0.00 0.00 0.00 69 1010.0
20260906004226 87 320 1.7 1.7 0.00 0.00 0.00 70 1009.8
20260906003721 87 318 1.7 1.7 0.00 0.00 0.00 69 1009.8
20260906003217 87 325 0.0 0.9 0.00 0.00 0.00 69 1010.0
20260906002717 88 330 1.7 2.6 0.00 0.00 0.00 68 1009.9
20260906002212 88 11 2.6 3.5 0.00 0.00 0.00 68 1010.0
20260906001707 88 8 1.7 2.6 0.00 0.00 0.00 69 1010.1
20260906001207 88 346 1.7 1.7 0.00 0.00 0.00 68 1010.2
20260906000703 89 353 1.7 2.6 0.00 0.00 0.00 67 1010.2
20260906000158 89 337 1.7 2.6 0.00 0.00 0.00 65 1010.3
20260905235656 89 337 2.6 2.6 0.00 0.00 0.00 65 1010.3
20260905235152 89 341 1.7 3.5 0.00 0.00 0.00 64 1010.5
20260905234647 89 3 2.6 3.5 0.00 0.00 0.00 64 1010.4
20260905234143 90 44 0.0 1.7 0.00 0.00 0.00 66 1010.4
20260905233637 90 50 0.0 0.9 0.00 0.00 0.00 64 1010.3
20260905233136 91 35 0.0 0.0 0.00 0.00 0.00 63 1010.2
20260905232632 91 297 0.0 0.0 0.00 0.00 0.00 62 1010.4
20260905232128 90 299 0.0 0.0 0.00 0.00 0.00 62 1010.2
20260905231623 90 269 0.0 0.9 0.00 0.00 0.00 62 1010.2
20260905231119 90 283 0.0 0.0 0.00 0.00 0.00 60 1010.1
20260905230615 90 287 0.0 0.9 0.00 0.00 0.00 59 1010.1
20260905230113 90 284 0.0 0.0 0.00 0.00 0.00 58 1010.0
20260905225612 90 242 0.0 0.9 0.00 0.00 0.00 59 1010.0
20260905225108 91 315 0.0 2.6 0.00 0.00 0.00 66 1010.1
20260905224607 91 316 3.5 5.2 0.00 0.00 0.00 62 1010.4
20260905224107 92 314 4.3 4.3 0.00 0.00 0.00 60 1010.2
20260905223604 93 308 3.5 4.3 0.00 0.00 0.00 64 1010.1
20260905223101 93 297 0.0 0.9 0.00 0.00 0.00 62 1009.9
20260905222600 93 326 0.0 0.9 0.00 0.00 0.00 64 1010.0
20260905222055 95 339 0.9 1.7 0.00 0.00 0.00 60 1009.9
20260905221552 95 304 0.0 0.9 0.00 0.00 0.00 58 1010.1
20260905221047 95 281 0.9 0.9 0.00 0.00 0.00 55 1009.9
20260905220543 96 300 0.0 0.9 0.00 0.00 0.00 51 1010.2
20260905220039 96 37 0.0 0.0 0.00 0.00 0.00 51 1010.3
20260905215538 97 326 0.0 0.0 0.00 0.00 0.00 50 1010.2
20260905215035 98 297 0.0 0.9 0.00 0.00 0.00 49 1010.3
20260905214530 99 7 0.0 0.0 0.00 0.00 0.00 48 1010.2
20260905214025 100 315 0.0 0.0 0.00 0.00 0.00 47 1010.3
20260905213520 101 341 1.7 1.7 0.00 0.00 0.00 51 1010.3
20260905213016 101 318 1.7 3.5 0.00 0.00 0.00 45 1010.3
20260905212511 103 246 0.0 1.7 0.00 0.00 0.00 46 1010.4
20260905212010 102 262 0.0 1.7 0.00 0.00 0.00 45 1010.3
20260905211505 100 310 0.0 0.0 0.00 0.00 0.00 51 1010.3
20260905211001 100 303 0.9 1.7 0.00 0.00 0.00 45 1010.3
20260905210457 100 135 0.0 0.9 0.00 0.00 0.00 48 1010.5
20260905205956 100 331 1.7 5.2 0.00 0.00 0.00 45 1010.4
20260905205450 102 313 2.6 2.6 0.00 0.00 0.00 46 1010.4
20260905204949 101 269 0.0 0.0 0.00 0.00 0.00 47 1010.6
20260905204445 101 52 0.0 1.7 0.00 0.00 0.00 45 1010.5
20260905203944 102 315 1.7 1.7 0.00 0.00 0.00 46 1010.7
20260905203440 99 284 0.9 0.9 0.00 0.00 0.00 50 1010.7
20260905202936 98 359 2.6 4.3 0.00 0.00 0.00 53 1010.9
20260905202431 99 9 1.7 2.6 0.00 0.00 0.00 48 1010.6
20260905201926 99 297 0.0 0.9 0.00 0.00 0.00 47 1010.8
20260905201421 98 291 0.0 2.6 0.00 0.00 0.00 52 1011.0
20260905200921 98 29 0.0 0.9 0.00 0.00 0.00 52 1011.1
20260905200417 98 230 0.0 0.9 0.00 0.00 0.00 51 1011.2
20260905195915 98 345 0.0 0.9 0.00 0.00 0.00 51 1011.2
20260905195410 98 342 1.7 1.7 0.00 0.00 0.00 50 1011.3
20260905194906 98 309 0.0 0.9 0.00 0.00 0.00 53 1011.4
20260905194406 97 244 0.0 0.9 0.00 0.00 0.00 52 1011.6
20260905193906 97 291 0.9 2.6 0.00 0.00 0.00 50 1011.7
20260905193400 97 255 0.0 0.9 0.00 0.00 0.00 50 1011.7
20260905192856 98 22 0.9 1.7 0.00 0.00 0.00 51 1011.6
20260905192351 98 285 0.0 3.5 0.00 0.00 0.00 49 1011.7
20260905191851 99 0 2.6 3.5 0.00 0.00 0.00 47 1011.9
20260905191350 98 50 0.0 4.3 0.00 0.00 0.00 51 1011.7
20260905190850 98 26 3.5 7.0 0.00 0.00 0.00 49 1011.7
20260905190348 98 11 3.5 5.2 0.00 0.00 0.00 51 1011.9
20260905185847 98 16 0.0 4.3 0.00 0.00 0.00 49 1012.0
20260905185343 98 345 2.6 4.3 0.00 0.00 0.00 50 1012.0
20260905184842 98 353 6.1 7.8 0.00 0.00 0.00 51 1012.1
20260905184341 98 355 2.6 4.3 0.00 0.00 0.00 53 1012.1
20260905183839 98 357 3.5 7.0 0.00 0.00 0.00 48 1012.3
20260905183335 99 348 0.9 2.6 0.00 0.00 0.00 49 1012.3
20260905182836 99 317 1.7 2.6 0.00 0.00 0.00 47 1012.2
20260905182335 98 251 1.7 1.7 0.00 0.00 0.00 51 1012.2
20260905181831 98 284 0.9 1.7 0.00 0.00 0.00 49 1012.5
20260905181330 97 306 1.7 2.6 0.00 0.00 0.00 48 1012.5
20260905180829 98 274 0.9 4.3 0.00 0.00 0.00 52 1012.5
20260905180325 98 251 0.9 1.7 0.00 0.00 0.00 53 1012.6
20260905175819 98 327 1.7 2.6 0.00 0.00 0.00 50 1012.5
20260905175314 97 293 0.9 2.6 0.00 0.00 0.00 54 1012.6
20260905174809 97 287 1.7 3.5 0.00 0.00 0.00 51 1012.7
20260905174305 97 237 0.9 2.6 0.00 0.00 0.00 52 1012.7
20260905173801 96 265 0.9 3.5 0.00 0.00 0.00 54 1012.9
20260905173257 96 292 0.9 2.6 0.00 0.00 0.00 51 1012.8
20260905172756 97 332 3.5 5.2 0.00 0.00 0.00 50 1012.7
20260905172254 97 232 0.9 1.7 0.00 0.00 0.00 54 1012.8
20260905171751 96 286 1.7 2.6 0.00 0.00 0.00 55 1012.9
20260905171247 96 310 2.6 3.5 0.00 0.00 0.00 55 1013.0
20260905170743 96 352 4.3 5.2 0.00 0.00 0.00 52 1012.9
20260905170239 96 288 0.0 3.5 0.00 0.00 0.00 54 1013.1
20260905165738 95 309 0.0 3.5 0.00 0.00 0.00 51 1013.3
20260905165234 95 329 3.5 5.2 0.00 0.00 0.00 55 1013.3
20260905164733 95 337 2.6 3.5 0.00 0.00 0.00 53 1013.2
20260905164228 95 333 4.3 4.3 0.00 0.00 0.00 52 1013.3
20260905163724 95 338 2.6 6.1 0.00 0.00 0.00 54 1013.3
20260905163220 95 343 2.6 4.3 0.00 0.00 0.00 54 1013.4
20260905162717 95 243 0.9 1.7 0.00 0.00 0.00 58 1013.2
20260905162216 94 217 0.0 1.7 0.00 0.00 0.00 55 1013.4
20260905161711 94 317 3.5 4.3 0.00 0.00 0.00 54 1013.5
20260905161209 94 299 0.9 2.6 0.00 0.00 0.00 56 1013.4
20260905160708 94 355 4.3 4.3 0.00 0.00 0.00 57 1013.6
20260905160207 94 304 0.0 1.7 0.00 0.00 0.00 57 1013.6
20260905155702 93 321 0.0 1.7 0.00 0.00 0.00 56 1013.7
20260905155202 93 298 1.7 1.7 0.00 0.00 0.00 58 1013.5
20260905154655 93 321 1.7 1.7 0.00 0.00 0.00 61 1013.5
20260905154151 92 315 3.5 6.1 0.00 0.00 0.00 60 1013.7
20260905153647 92 329 2.6 4.3 0.00 0.00 0.00 57 1013.8
20260905153142 92 312 1.7 2.6 0.00 0.00 0.00 61 1013.7
20260905152637 92 309 1.7 2.6 0.00 0.00 0.00 63 1013.8
20260905152132 92 283 0.0 1.7 0.00 0.00 0.00 69 1013.7
20260905151626 91 239 1.7 1.7 0.00 0.00 0.00 66 1013.8
20260905151122 91 233 0.0 1.7 0.00 0.00 0.00 67 1013.8
20260905150617 91 309 0.9 0.9 0.00 0.00 0.00 69 1013.6
20260905150115 90 0 1.7 3.5 0.00 0.00 0.00 67 1013.5
20260905145614 90 24 0.9 1.7 0.00 0.00 0.00 68 1013.7
20260905145113 89 358 1.7 3.5 0.00 0.00 0.00 70 1013.6
20260905144608 89 1 1.7 4.3 0.00 0.00 0.00 68 1013.7
20260905144108 88 319 1.7 4.3 0.00 0.00 0.00 71 1013.4
20260905143608 88 9 3.5 5.2 0.00 0.00 0.00 71 1013.7
20260905143103 87 344 2.6 3.5 0.00 0.00 0.00 74 1013.5
20260905142602 87 352 2.6 3.5 0.00 0.00 0.00 76 1013.7
20260905142056 86 351 3.5 5.2 0.00 0.00 0.00 77 1013.4
20260905141555 86 345 1.7 5.2 0.00 0.00 0.00 76 1013.7
20260905141053 85 341 1.7 4.3 0.00 0.00 0.00 78 1013.6
20260905140553 85 334 1.7 4.3 0.00 0.00 0.00 81 1013.6
20260905140051 84 354 3.5 4.3 0.00 0.00 0.00 80 1013.6
20260905135547 84 337 2.6 2.6 0.00 0.00 0.00 84 1013.6
20260905135047 84 314 1.7 3.5 0.00 0.00 0.00 82 1013.8
20260905134542 83 320 1.7 1.7 0.00 0.00 0.00 83 1013.5
20260905134041 83 313 1.7 3.5 0.00 0.00 0.00 81 1013.7
20260905133537 82 357 1.7 2.6 0.00 0.00 0.00 88 1013.5
20260905133036 82 300 0.0 1.7 0.00 0.00 0.00 90 1013.6
20260905132536 81 195 0.0 0.0 0.00 0.00 0.00 92 1013.5
20260905132031 80 49 0.0 1.7 0.00 0.00 0.00 93 1013.8
20260905131527 80 345 1.7 1.7 0.00 0.00 0.00 95 1013.5
20260905131022 79 327 0.9 0.9 0.00 0.00 0.00 97 1013.6
20260905130521 78 157 0.0 1.7 0.00 0.00 0.00 98 1013.7
20260905130016 78 315 0.0 0.0 0.00 0.00 0.00 99 1013.6
20260905125515 77 336 0.0 0.9 0.00 0.00 0.00 99 1013.4
20260905125011 77 343 0.0 1.7 0.00 0.00 0.00 99 1013.5
20260905124508 76 120 0.0 0.0 0.00 0.00 0.00 99 1013.4
20260905124003 76 0 0.0 0.9 0.00 0.00 0.00 99 1013.5
20260905123459 76 20 0.0 0.9 0.00 0.00 0.00 99 1013.2
20260905122954 75 20 1.7 1.7 0.00 0.00 0.00 99 1013.3
20260905122449 75 352 1.7 1.7 0.00 0.00 0.00 99 1013.1
20260905121944 75 357 1.7 1.7 0.00 0.00 0.00 99 1013.2
20260905121439 75 349 0.9 0.9 0.00 0.00 0.00 99 1013.1
20260905120939 75 7 0.0 0.9 0.00 0.00 0.00 99 1013.1
20260905120433 75 11 0.0 1.7 0.00 0.00 0.00 99 1013.0
20260905115928 75 351 1.7 1.7 0.00 0.00 0.00 99 1013.1
20260905115427 75 322 0.0 0.9 0.00 0.00 0.00 99 1013.0
20260905114923 75 11 1.7 2.6 0.00 0.00 0.00 99 1012.9
20260905114422 75 7 0.9 1.7 0.00 0.00 0.00 99 1013.2
20260905113921 74 4 0.9 0.9 0.00 0.00 0.00 99 1012.9
20260905113417 75 25 0.0 0.9 0.00 0.00 0.00 99 1012.8
20260905112912 75 336 0.0 0.0 0.00 0.00 0.00 99 1013.0
20260905112408 75 104 0.0 0.0 0.00 0.00 0.00 99 1012.7
20260905111903 75 41 0.0 0.9 0.00 0.00 0.00 99 1012.9
20260905111402 75 333 0.0 0.9 0.00 0.00 0.00 99 1012.9
20260905110902 75 302 0.0 0.9 0.00 0.00 0.00 99 1012.9
20260905110356 75 0 0.0 0.0 0.00 0.00 0.00 99 1012.7
20260905105851 75 34 0.9 0.9 0.00 0.00 0.00 99 1012.7
20260905105351 75 25 0.0 0.9 0.00 0.00 0.00 99 1012.7
20260905104850 75 25 0.0 0.0 0.00 0.00 0.00 99 1012.5
20260905104347 75 80 0.0 0.9 0.00 0.00 0.00 99 1012.5
20260905103847 75 315 0.0 0.0 0.00 0.00 0.00 99 1012.5
20260905103342 75 37 0.0 0.9 0.00 0.00 0.00 99 1012.5
20260905102838 76 353 1.7 1.7 0.00 0.00 0.00 99 1012.5
20260905102335 76 340 0.9 1.7 0.00 0.00 0.00 99 1012.5
20260905101834 76 331 0.0 0.9 0.00 0.00 0.00 99 1012.5
20260905101333 76 322 0.0 0.0 0.00 0.00 0.00 99 1012.5
20260905100827 76 322 0.0 0.0 0.00 0.00 0.00 99 1012.6
20260905100324 76 322 0.0 0.0 0.00 0.00 0.00 99 1012.5
20260905095823 76 336 0.0 0.0 0.00 0.00 0.00 99 1012.5
20260905095323 76 55 0.0 0.0 0.00 0.00 0.00 99 1012.3
20260905094817 76 25 0.0 0.0 0.00 0.00 0.00 98 1012.3
20260905094313 76 25 0.0 0.0 0.00 0.00 0.00 98 1012.4
20260905093812 76 25 0.0 0.0 0.00 0.00 0.00 98 1012.6
20260905093308 76 25 0.0 0.0 0.00 0.00 0.00 98 1012.5
20260905092804 76 25 0.0 0.0 0.00 0.00 0.00 98 1012.4
20260905092258 76 343 0.0 0.0 0.00 0.00 0.00 98 1012.4
20260905091759 76 37 0.0 0.0 0.00 0.00 0.00 98 1012.3
20260905091258 76 37 0.0 0.0 0.00 0.00 0.00 98 1012.6
20260905090757 76 37 0.0 0.0 0.00 0.00 0.00 98 1012.4
20260905090253 76 37 0.0 0.0 0.00 0.00 0.00 98 1012.4
20260905085753 76 37 0.0 0.0 0.00 0.00 0.00 98 1012.4
20260905085253 76 37 0.0 0.0 0.00 0.00 0.00 97 1012.4
20260905084748 76 353 0.0 0.0 0.00 0.00 0.00 97 1012.4
20260905084247 77 353 0.0 0.0 0.00 0.00 0.00 97 1012.5
20260905083742 77 327 0.0 0.9 0.00 0.00 0.00 97 1012.5
20260905083238 77 37 0.0 0.0 0.00 0.00 0.00 97 1012.5
20260905082734 77 37 0.0 0.0 0.00 0.00 0.00 97 1012.5
20260905082230 77 37 0.0 0.0 0.00 0.00 0.00 97 1012.5
20260905081730 77 343 0.0 0.0 0.00 0.00 0.00 97 1012.6
20260905081225 77 343 0.0 0.0 0.00 0.00 0.00 97 1012.3
20260905080725 77 76 0.0 0.0 0.00 0.00 0.00 97 1012.6
20260905080224 77 76 0.0 0.0 0.00 0.00 0.00 97 1012.6
20260905075724 77 76 0.0 0.9 0.00 0.00 0.00 96 1012.5
20260905075223 77 6 0.9 1.7 0.00 0.00 0.00 97 1012.6
20260905074722 77 0 0.9 1.7 0.00 0.00 0.00 96 1012.6
20260905074218 77 0 0.0 0.9 0.00 0.00 0.00 96 1012.6
20260905073714 77 326 0.0 0.0 0.00 0.00 0.00 96 1012.8
20260905073209 78 357 0.9 0.9 0.00 0.00 0.00 96 1012.7
20260905072708 78 16 0.0 0.9 0.00 0.00 0.00 96 1012.5
20260905072203 78 37 0.0 0.0 0.00 0.00 0.00 96 1012.7
20260905071700 78 25 0.0 0.0 0.00 0.00 0.00 96 1012.8
20260905071155 78 50 0.0 0.0 0.00 0.00 0.00 96 1012.7
20260905070650 78 50 0.0 0.0 0.00 0.00 0.00 95 1012.7
20260905070146 78 333 0.0 0.9 0.00 0.00 0.00 95 1012.7
20260905065645 78 322 0.0 0.0 0.00 0.00 0.00 95 1012.7
20260905065139 79 309 0.0 0.9 0.00 0.00 0.00 95 1012.6
20260905064635 79 315 0.0 0.9 0.00 0.00 0.00 94 1012.9
20260905064130 79 199 0.0 0.9 0.00 0.00 0.00 94 1012.8
20260905063628 79 0 0.0 0.0 0.00 0.00 0.00 94 1012.8
20260905063126 79 25 0.0 0.0 0.00 0.00 0.00 95 1012.8
20260905062621 79 6 0.0 1.7 0.00 0.00 0.00 95 1012.9
20260905062120 79 8 1.7 1.7 0.00 0.00 0.00 94 1012.8
20260905061615 79 4 1.7 1.7 0.00 0.00 0.00 94 1013.0
20260905061115 79 356 1.7 1.7 0.00 0.00 0.00 94 1013.0
20260905060610 80 357 0.9 1.7 0.00 0.00 0.00 93 1013.1
20260905060106 80 343 0.9 0.9 0.00 0.00 0.00 92 1013.0
20260905055605 80 345 0.0 0.9 0.00 0.00 0.00 92 1013.0
20260905055100 80 0 1.7 1.7 0.00 0.00 0.00 92 1013.0
20260905054555 80 359 1.7 1.7 0.00 0.00 0.00 91 1012.9
20260905054051 79 357 1.7 1.7 0.00 0.00 0.00 92 1013.0
20260905053550 80 311 0.0 0.9 0.00 0.00 0.00 92 1012.9
20260905053046 80 333 0.0 0.9 0.00 0.00 0.00 92 1013.1
20260905052545 80 62 0.0 0.9 0.00 0.00 0.00 92 1013.1
20260905052040 80 15 0.0 0.9 0.00 0.00 0.00 91 1012.9
20260905051535 80 4 0.9 1.7 0.00 0.00 0.00 90 1013.2
20260905051032 80 7 1.7 1.7 0.00 0.00 0.00 90 1013.1
20260905050528 81 19 0.0 0.0 0.00 0.00 0.00 88 1013.0
20260905050025 81 44 0.0 0.9 0.00 0.00 0.00 87 1013.2
20260905045519 81 8 1.7 1.7 0.00 0.00 0.00 87 1013.2
20260905045015 81 351 0.9 1.7 0.00 0.00 0.00 87 1013.0
20260905044515 80 359 0.9 1.7 0.00 0.00 0.00 88 1013.2
20260905044015 80 354 0.9 1.7 0.00 0.00 0.00 88 1013.2
20260905043514 80 349 0.9 0.9 0.00 0.00 0.00 88 1012.9
20260905043009 81 325 0.0 0.0 0.00 0.00 0.00 88 1013.0
20260905042508 81 325 0.0 0.0 0.00 0.00 0.00 87 1013.1
20260905042003 81 297 0.0 0.0 0.00 0.00 0.00 87 1013.2
20260905041459 81 297 0.0 0.0 0.00 0.00 0.00 87 1013.0
20260905040954 81 37 0.0 0.0 0.00 0.00 0.00 86 1013.1
20260905040454 81 195 0.0 0.0 0.00 0.00 0.00 86 1013.2
20260905035953 81 50 0.0 0.0 0.00 0.00 0.00 86 1013.2
20260905035448 81 50 0.0 0.0 0.00 0.00 0.00 86 1013.2
20260905034945 81 50 0.0 0.0 0.00 0.00 0.00 85 1013.2
20260905034440 82 50 0.0 0.0 0.00 0.00 0.00 84 1013.2
20260905033939 82 46 0.9 1.7 0.00 0.00 0.00 84 1013.2
20260905033434 81 357 0.9 1.7 0.00 0.00 0.00 85 1013.2
20260905032934 81 333 0.0 0.9 0.00 0.00 0.00 85 1013.2
20260905032430 81 311 0.0 0.0 0.00 0.00 0.00 85 1013.2
20260905031924 81 15 0.0 0.0 0.00 0.00 0.00 84 1013.3
20260905031420 81 343 0.0 0.9 0.00 0.00 0.00 84 1013.2
20260905030915 82 322 0.0 0.0 0.00 0.00 0.00 83 1013.2
20260905030411 82 205 0.0 0.0 0.00 0.00 0.00 82 1013.3
20260905025909 82 205 0.0 0.0 0.00 0.00 0.00 82 1013.1
20260905025405 83 195 0.0 0.9 0.00 0.00 0.00 81 1013.0
20260905024902 83 284 0.0 0.0 0.00 0.00 0.00 80 1013.3
20260905024356 83 309 0.0 0.0 0.00 0.00 0.00 80 1013.0
20260905023852 83 269 0.0 0.0 0.00 0.00 0.00 79 1013.1
20260905023347 83 164 0.0 0.0 0.00 0.00 0.00 79 1012.9
20260905022846 83 164 0.0 0.0 0.00 0.00 0.00 79 1013.0